FW6082 Weather Reports


time (UTC)temp
C
wind
direction
speed
KPH
gust
KPH
rain 1hr
cm
rain 24hr
cm
rain mn
cm
humidity
%
barometer
mb
20260902100010 12 359 0.0 0.0 0.00 0.00 0.00 40 1014.6
20260902094510 12 359 0.0 0.0 0.00 0.00 0.00 36 1014.2
20260902093008 12 359 0.0 0.0 0.00 0.00 0.00 36 1014.2
20260902091507 13 359 0.0 0.0 0.00 0.00 0.00 34 1014.0
20260902090008 13 359 0.0 0.0 0.00 0.00 0.00 30 1014.0
20260902084506 13 359 0.0 1.6 0.00 0.00 0.00 30 1013.9
20260902083004 13 359 0.0 1.6 0.00 0.00 0.00 37 1014.1
20260902081503 12 359 0.0 0.0 0.00 0.00 0.00 37 1014.3
20260902080101 12 359 0.0 0.0 0.00 0.00 0.00 39 1014.5
20260902074619 12 359 0.0 1.6 0.00 0.00 0.00 39 1014.7
20260902073058 13 359 0.0 0.0 0.00 0.00 0.00 35 1014.9
20260902071556 13 359 0.0 0.0 0.00 0.00 0.00 37 1014.9
20260902070054 13 359 0.0 0.0 0.00 0.00 0.00 34 1015.0
20260902064554 12 359 0.0 0.0 0.00 0.00 0.00 40 1015.0
20260902063048 12 359 0.0 0.0 0.00 0.00 0.00 35 1015.3
20260902061550 12 359 0.0 1.6 0.00 0.00 0.00 39 1015.4
20260902060045 11 359 0.0 0.0 0.00 0.00 0.00 41 1015.6
20260902054543 11 359 0.0 3.2 0.00 0.00 0.00 41 1015.7
20260902053043 11 359 0.0 0.0 0.00 0.00 0.00 41 1015.7
20260902051541 11 359 0.0 0.0 0.00 0.00 0.00 40 1015.8
20260902050040 12 359 0.0 0.0 0.00 0.00 0.00 41 1015.6
20260902044639 12 359 0.0 0.0 0.00 0.00 0.00 41 1015.6
20260902043043 11 359 0.0 0.0 0.00 0.00 0.00 44 1015.5
20260902041534 11 359 0.0 0.0 0.00 0.00 0.00 41 1015.5
20260902040031 12 359 0.0 0.0 0.00 0.00 0.00 42 1015.7
20260902034531 12 359 0.0 0.0 0.00 0.00 0.00 40 1015.9
20260902033029 12 359 0.0 1.6 0.00 0.00 0.00 38 1015.8
20260902031537 13 359 0.0 0.0 0.00 0.00 0.00 37 1016.0
20260902030031 12 359 0.0 0.0 0.00 0.00 0.00 37 1016.0
20260902024528 12 359 0.0 0.0 0.00 0.00 0.00 38 1016.2
20260902023033 12 359 0.0 0.0 0.00 0.00 0.00 38 1016.2
20260902021529 12 359 0.0 0.0 0.00 0.00 0.00 38 1016.2
20260902020029 13 359 0.0 0.0 0.00 0.00 0.00 41 1016.1
20260902014530 12 359 0.0 0.0 0.00 0.00 0.00 37 1016.0
20260902013025 13 359 0.0 0.0 0.00 0.00 0.00 37 1016.0
20260902011524 13 359 0.0 0.0 0.00 0.00 0.00 40 1015.8
20260902010026 13 359 0.0 0.0 0.00 0.00 0.00 37 1015.7
20260902004528 14 359 0.0 0.0 0.00 0.00 0.00 37 1015.6
20260902003027 15 359 0.0 0.0 0.00 0.00 0.00 33 1015.6
20260902001523 16 359 0.0 0.0 0.00 0.00 0.00 31 1015.3
20260902000022 16 359 0.0 0.0 0.00 0.00 0.00 31 1015.0
20260901234522 17 359 0.0 3.2 0.00 0.00 0.00 27 1014.6
20260901233023 18 359 0.0 0.0 0.00 0.00 0.00 31 1014.4
20260901231521 19 359 0.0 0.0 0.00 0.00 0.00 25 1014.2
20260901230020 20 359 0.0 3.2 0.00 0.00 0.00 21 1014.1
20260901224525 21 341 0.0 1.6 0.00 0.00 0.00 20 1014.1
20260901223019 22 341 0.0 1.6 0.00 0.00 0.00 20 1014.0
20260901221552 22 347 0.0 6.4 0.00 0.00 0.00 18 1013.8
20260901220022 23 315 0.0 6.4 0.00 0.00 0.00 17 1013.7
20260901214517 23 246 3.2 11.3 0.00 0.00 0.00 15 1013.6
20260901213021 23 295 3.2 12.9 0.00 0.00 0.00 16 1013.6
20260901211516 24 283 8.0 16.1 0.00 0.00 0.00 15 1013.6
20260901210014 24 280 8.0 16.1 0.00 0.00 0.00 15 1013.4
20260901204519 25 290 4.8 14.5 0.00 0.00 0.00 15 1013.2
20260901203013 26 271 6.4 12.9 0.00 0.00 0.00 13 1013.0
20260901201512 27 209 3.2 9.7 0.00 0.00 0.00 13 1013.1
20260901200024 27 236 3.2 8.0 0.00 0.00 0.00 11 1013.1
20260901194511 27 252 3.2 12.9 0.00 0.00 0.00 11 1013.1
20260901193012 27 238 3.2 9.7 0.00 0.00 0.00 11 1013.2
20260901191518 28 258 1.6 9.7 0.00 0.00 0.00 9 1013.2
20260901190007 28 277 1.6 4.8 0.00 0.00 0.00 10 1013.5
20260901184507 28 228 0.0 8.0 0.00 0.00 0.00 11 1013.7
20260901183003 28 225 1.6 6.4 0.00 0.00 0.00 9 1013.9
20260901181503 28 58 0.0 3.2 0.00 0.00 0.00 8 1013.9
20260901180002 28 117 1.6 4.8 0.00 0.00 0.00 8 1014.1
20260901174558 27 347 0.0 4.8 0.00 0.00 0.00 8 1014.4
20260901173055 28 332 1.6 6.4 0.00 0.00 0.00 9 1015.0
20260901171600 28 126 0.0 1.6 0.00 0.00 0.00 12 1015.4
20260901170057 27 338 0.0 3.2 0.00 0.00 0.00 9 1016.0
20260901164545 27 79 0.0 1.6 0.00 0.00 0.00 9 1016.5
20260901163045 26 107 0.0 4.8 0.00 0.00 0.00 9 1016.9
20260901161539 26 125 0.0 3.2 0.00 0.00 0.00 10 1017.5
20260901160035 25 151 1.6 6.4 0.00 0.00 0.00 11 1017.9
20260901154528 25 149 0.0 4.8 0.00 0.00 0.00 11 1018.5
20260901153026 23 206 0.0 3.2 0.00 0.00 0.00 12 1018.9
20260901151533 23 196 0.0 4.8 0.00 0.00 0.00 13 1019.3
20260901150026 22 157 0.0 6.4 0.00 0.00 0.00 15 1019.6
20260901144512 22 197 3.2 8.0 0.00 0.00 0.00 14 1020.0
20260901143009 21 117 1.6 11.3 0.00 0.00 0.00 18 1020.1
20260901141505 21 100 3.2 9.7 0.00 0.00 0.00 15 1020.4
20260901140135 20 292 1.6 4.8 0.00 0.00 0.00 17 1020.6
20260901134557 20 89 1.6 6.4 0.00 0.00 0.00 17 1020.8
20260901133052 18 150 4.8 9.7 0.00 0.00 0.00 16 1021.1
20260901131549 18 90 1.6 16.1 0.00 0.00 0.00 16 1021.3
20260901130045 16 98 8.0 22.5 0.00 0.00 0.00 20 1021.2
20260901124640 15 246 0.0 4.8 0.00 0.00 0.00 26 1021.5
20260901123036 14 235 0.0 0.0 0.00 0.00 0.00 29 1021.9
20260901121532 13 111 0.0 6.4 0.00 0.00 0.00 28 1021.8
20260901120028 12 134 0.0 4.8 0.00 0.00 0.00 32 1021.7
20260901114530 11 213 0.0 4.8 0.00 0.03 0.00 31 1021.5
20260901113120 10 48 0.0 4.8 0.00 0.03 0.00 39 1021.7
20260901111519 9 51 0.0 4.8 0.00 0.03 0.00 44 1021.6
20260901110117 10 51 0.0 1.6 0.00 0.03 0.00 43 1021.6
20260901104521 10 17 0.0 3.2 0.00 0.03 0.00 38 1021.5
20260901103015 9 76 0.0 3.2 0.00 0.03 0.00 39 1021.4
20260901101535 9 72 0.0 1.6 0.00 0.03 0.00 44 1021.3